Location: Alpine Heights
(32.8181°N, 116.7809°W)
Time: 23:04:03
(UTC+00:00)

Cosmos 1943 Rocket - Pass Details

Date: 14 April 2021
Orbit: 812 x 843 km, 71.0° (Epoch: 15 May)

Event Time Altitude Azimuth Distance (km) Brightness Sun altitude
Exits shadow 12:05:20 16° 210° (SSW) 2,067 3.8 -15.5°
Maximum altitude 12:09:55 68° 292° (WNW) 905 2.2 -14.6°
Drops below altitude 10° 12:15:33 10° 15° (NNE) 2,463 5.1 -13.5°
Sets 12:18:01 0° 18° (NNE) 3,398 5.9 -13.0°
